Location: Fontevrault
(47.1823°N, 0.0493°E)
Time: 17:15:15
(UTC+00:00)

Cosmos 1725 Rocket - Pass Details

Date: 29 October 2021
Orbit: 961 x 991 km, 82.9° (Epoch: 27 November)

Event Time Altitude Azimuth Distance (km) Brightness Sun altitude
Rises 04:21:10 0° 5° (N) 3,659 7.1 -23.8°
Reaches altitude 10° 04:26:06 10° 40° (NE) 2,707 6.9 -23.0°
Maximum altitude 04:27:48 11° 56° (NE) 2,626 7.1 -22.7°
Drops below altitude 10° 04:29:29 10° 72° (ENE) 2,705 7.4 -22.4°
Sets 04:34:23 0° 106° (ESE) 3,651 8.2 -21.6°
